Year,Month,Day,Hour,Minute,Value (Times are PST for temperature in C)
2019,05,05,00,00,9.80
2019,05,05,00,01,9.80
2019,05,05,00,02,9.80
2019,05,05,00,03,9.80
2019,05,05,00,04,9.80
2019,05,05,00,05,9.80
2019,05,05,00,06,9.80
2019,05,05,00,07,9.80
2019,05,05,00,08,9.80
2019,05,05,00,09,9.80
2019,05,05,00,10,9.70
2019,05,05,00,11,9.70
2019,05,05,00,12,9.70
2019,05,05,00,13,9.60
2019,05,05,00,14,9.60
2019,05,05,00,15,9.50
2019,05,05,00,16,9.50
2019,05,05,00,17,9.50
2019,05,05,00,18,9.40
2019,05,05,00,19,9.40
2019,05,05,00,20,9.40
2019,05,05,00,21,9.40
2019,05,05,00,22,9.30
2019,05,05,00,23,9.30
2019,05,05,00,24,9.30
2019,05,05,00,25,9.30
2019,05,05,00,26,9.30
2019,05,05,00,27,9.20
2019,05,05,00,28,9.20
2019,05,05,00,29,9.20
2019,05,05,00,30,9.20
2019,05,05,00,31,9.10
2019,05,05,00,32,9.10
2019,05,05,00,33,9.10
2019,05,05,00,34,9.10
2019,05,05,00,35,9.00
2019,05,05,00,36,9.00
2019,05,05,00,37,9.00
2019,05,05,00,38,9.00
2019,05,05,00,39,9.00
2019,05,05,00,40,9.00
2019,05,05,00,41,8.90
2019,05,05,00,42,8.90
2019,05,05,00,43,8.90
2019,05,05,00,44,8.90
2019,05,05,00,45,8.90
2019,05,05,00,46,8.90
2019,05,05,00,47,8.80
2019,05,05,00,48,8.80
2019,05,05,00,49,8.80
2019,05,05,00,50,8.80
2019,05,05,00,51,8.80
2019,05,05,00,52,8.80
2019,05,05,00,53,8.70
2019,05,05,00,54,8.70
2019,05,05,00,55,8.70
2019,05,05,00,56,8.70
2019,05,05,00,57,8.70
2019,05,05,00,58,8.70
2019,05,05,00,59,8.70
2019,05,05,01,00,8.80
2019,05,05,01,01,8.70
2019,05,05,01,02,8.80
2019,05,05,01,03,8.80
2019,05,05,01,04,8.90
2019,05,05,01,05,8.90
2019,05,05,01,06,9.00
2019,05,05,01,07,9.10
2019,05,05,01,08,9.10
2019,05,05,01,09,9.30
2019,05,05,01,10,9.30
2019,05,05,01,11,9.40
2019,05,05,01,12,9.50
2019,05,05,01,13,9.50
2019,05,05,01,14,9.60
2019,05,05,01,15,9.60
2019,05,05,01,16,9.60
2019,05,05,01,17,9.60
2019,05,05,01,18,9.60
2019,05,05,01,19,9.60
2019,05,05,01,20,9.60
2019,05,05,01,21,9.60
2019,05,05,01,22,9.60
2019,05,05,01,23,9.70
2019,05,05,01,24,9.70
2019,05,05,01,25,9.70
2019,05,05,01,26,9.60
2019,05,05,01,27,9.70
2019,05,05,01,28,9.70
2019,05,05,01,29,9.70
2019,05,05,01,30,9.80
2019,05,05,01,31,9.80
2019,05,05,01,32,9.90
2019,05,05,01,33,10.00
2019,05,05,01,34,10.00
2019,05,05,01,35,10.10
2019,05,05,01,36,10.10
2019,05,05,01,37,10.20
2019,05,05,01,38,10.10
2019,05,05,01,39,10.10
2019,05,05,01,40,10.10
2019,05,05,01,41,10.00
2019,05,05,01,42,10.00
2019,05,05,01,43,9.90
2019,05,05,01,44,9.80
2019,05,05,01,45,9.80
2019,05,05,01,46,9.80
2019,05,05,01,47,9.80
2019,05,05,01,48,9.80
2019,05,05,01,49,9.80
2019,05,05,01,50,9.80
2019,05,05,01,51,10.00
2019,05,05,01,52,10.10
2019,05,05,01,53,10.20
2019,05,05,01,54,10.20
2019,05,05,01,55,10.30
2019,05,05,01,56,10.30
2019,05,05,01,57,10.30
2019,05,05,01,58,10.40
2019,05,05,01,59,10.40
2019,05,05,02,00,10.40
2019,05,05,02,01,10.40
2019,05,05,02,02,10.50
2019,05,05,02,03,10.50
2019,05,05,02,04,10.50
2019,05,05,02,05,10.50
2019,05,05,02,06,10.50
2019,05,05,02,07,10.50
2019,05,05,02,08,10.50
2019,05,05,02,09,10.40
2019,05,05,02,10,10.40
2019,05,05,02,11,10.40
2019,05,05,02,12,10.40
2019,05,05,02,13,10.40
2019,05,05,02,14,10.40
2019,05,05,02,15,10.40
2019,05,05,02,16,10.40
2019,05,05,02,17,10.40
2019,05,05,02,18,10.40
2019,05,05,02,19,10.40
2019,05,05,02,20,10.30
2019,05,05,02,21,10.30
2019,05,05,02,22,10.30
2019,05,05,02,23,10.30
2019,05,05,02,24,10.30
2019,05,05,02,25,10.20
2019,05,05,02,26,10.20
2019,05,05,02,27,10.20
2019,05,05,02,28,10.20
2019,05,05,02,29,10.20
2019,05,05,02,30,10.30
2019,05,05,02,31,10.40
2019,05,05,02,32,10.60
2019,05,05,02,33,10.70
2019,05,05,02,34,10.80
2019,05,05,02,35,10.90
2019,05,05,02,36,10.90
2019,05,05,02,37,11.00
2019,05,05,02,38,11.10
2019,05,05,02,39,11.20
2019,05,05,02,40,11.30
2019,05,05,02,41,11.50
2019,05,05,02,42,11.60
2019,05,05,02,43,11.60
2019,05,05,02,44,11.70
2019,05,05,02,45,11.80
2019,05,05,02,46,11.80
2019,05,05,02,47,11.90
2019,05,05,02,48,11.90
2019,05,05,02,49,11.90
2019,05,05,02,50,11.90
2019,05,05,02,51,11.90
2019,05,05,02,52,12.00
2019,05,05,02,53,12.00
2019,05,05,02,54,12.00
2019,05,05,02,55,11.90
2019,05,05,02,56,11.90
2019,05,05,02,57,11.90
2019,05,05,02,58,11.90
2019,05,05,02,59,11.80
2019,05,05,03,00,11.80
2019,05,05,03,01,11.80
2019,05,05,03,02,11.80
2019,05,05,03,03,11.70
2019,05,05,03,04,11.70
2019,05,05,03,05,11.70
2019,05,05,03,06,11.70
2019,05,05,03,07,11.70
2019,05,05,03,08,11.60
2019,05,05,03,09,11.60
2019,05,05,03,10,11.60
2019,05,05,03,11,11.50
2019,05,05,03,12,11.50
2019,05,05,03,13,11.50
2019,05,05,03,14,11.50
2019,05,05,03,15,11.50
2019,05,05,03,16,11.60
2019,05,05,03,17,11.60
2019,05,05,03,18,11.50
2019,05,05,03,19,11.50
2019,05,05,03,20,11.50
2019,05,05,03,21,11.60
2019,05,05,03,22,11.60
2019,05,05,03,23,11.60
2019,05,05,03,24,11.50
2019,05,05,03,25,11.50
2019,05,05,03,26,11.60
2019,05,05,03,27,11.60
2019,05,05,03,28,11.50
2019,05,05,03,29,11.50
2019,05,05,03,30,11.50
2019,05,05,03,31,11.60
2019,05,05,03,32,11.60
2019,05,05,03,33,11.60
2019,05,05,03,34,11.60
2019,05,05,03,35,11.50
2019,05,05,03,36,11.50
2019,05,05,03,37,11.60
2019,05,05,03,38,11.50
2019,05,05,03,39,11.60
2019,05,05,03,40,11.60
2019,05,05,03,41,11.60
2019,05,05,03,42,11.60
2019,05,05,03,43,11.60
2019,05,05,03,44,11.60
2019,05,05,03,45,11.60
2019,05,05,03,46,11.60
2019,05,05,03,47,11.60
2019,05,05,03,48,11.50
2019,05,05,03,49,11.50
2019,05,05,03,50,11.50
2019,05,05,03,51,11.40
2019,05,05,03,52,11.40
2019,05,05,03,53,11.40
2019,05,05,03,54,11.50
2019,05,05,03,55,11.40
2019,05,05,03,56,11.40
2019,05,05,03,57,11.40
2019,05,05,03,58,11.40
2019,05,05,03,59,11.30
2019,05,05,04,00,11.30
2019,05,05,04,01,11.30
2019,05,05,04,02,11.30
2019,05,05,04,03,11.30
2019,05,05,04,04,11.30
2019,05,05,04,05,11.20
2019,05,05,04,06,11.20
2019,05,05,04,07,11.20
2019,05,05,04,08,11.10
2019,05,05,04,09,11.10
2019,05,05,04,10,11.10
2019,05,05,04,11,11.10
2019,05,05,04,12,11.10
2019,05,05,04,13,11.10
2019,05,05,04,14,11.10
2019,05,05,04,15,11.10
2019,05,05,04,16,11.10
2019,05,05,04,17,11.10
2019,05,05,04,18,11.00
2019,05,05,04,19,11.00
2019,05,05,04,20,11.00
2019,05,05,04,21,11.10
2019,05,05,04,22,11.00
2019,05,05,04,23,11.10
2019,05,05,04,24,11.00
2019,05,05,04,25,11.00
2019,05,05,04,26,11.00
2019,05,05,04,27,11.00
2019,05,05,04,28,11.00
2019,05,05,04,29,11.00
2019,05,05,04,30,11.00
2019,05,05,04,31,11.10
2019,05,05,04,32,11.10
2019,05,05,04,33,11.00
2019,05,05,04,34,11.00
2019,05,05,04,35,11.00
2019,05,05,04,36,11.00
2019,05,05,04,37,10.90
2019,05,05,04,38,10.90
2019,05,05,04,39,10.90
2019,05,05,04,40,10.90
2019,05,05,04,41,10.90
2019,05,05,04,42,10.80
2019,05,05,04,43,10.80
2019,05,05,04,44,10.80
2019,05,05,04,45,10.80
2019,05,05,04,46,10.80
2019,05,05,04,47,10.80
2019,05,05,04,48,10.80
2019,05,05,04,49,10.80
2019,05,05,04,50,10.80
2019,05,05,04,51,10.70
2019,05,05,04,52,10.70
2019,05,05,04,53,10.70
2019,05,05,04,54,10.70
2019,05,05,04,55,10.70
2019,05,05,04,56,10.70
2019,05,05,04,57,10.60
2019,05,05,04,58,10.60
2019,05,05,04,59,10.60
2019,05,05,05,00,10.60
2019,05,05,05,01,10.60
2019,05,05,05,02,10.50
2019,05,05,05,03,10.50
2019,05,05,05,04,10.50
2019,05,05,05,05,10.50
2019,05,05,05,06,10.40
2019,05,05,05,07,10.40
2019,05,05,05,08,10.40
2019,05,05,05,09,10.40
2019,05,05,05,10,10.40
2019,05,05,05,11,10.40
2019,05,05,05,12,10.40
2019,05,05,05,13,10.40
2019,05,05,05,14,10.40
2019,05,05,05,15,10.40
2019,05,05,05,16,10.40
2019,05,05,05,17,10.40
2019,05,05,05,18,10.40
2019,05,05,05,19,10.40
2019,05,05,05,20,10.40
2019,05,05,05,21,10.40
2019,05,05,05,22,10.40
2019,05,05,05,23,10.40
2019,05,05,05,24,10.40
2019,05,05,05,25,10.40
2019,05,05,05,26,10.50
2019,05,05,05,27,10.50
2019,05,05,05,28,10.50
2019,05,05,05,29,10.50
2019,05,05,05,30,10.50
2019,05,05,05,31,10.50
2019,05,05,05,32,10.40
2019,05,05,05,33,10.40
2019,05,05,05,34,10.40
2019,05,05,05,35,10.40
2019,05,05,05,36,10.40
2019,05,05,05,37,10.40
2019,05,05,05,38,10.40
2019,05,05,05,39,10.40
2019,05,05,05,40,10.50
2019,05,05,05,41,10.50
2019,05,05,05,42,10.50
2019,05,05,05,43,10.50
2019,05,05,05,44,10.50
2019,05,05,05,45,10.50
2019,05,05,05,46,10.50
2019,05,05,05,47,10.50
2019,05,05,05,48,10.50
2019,05,05,05,49,10.50
2019,05,05,05,50,10.50
2019,05,05,05,51,10.40
2019,05,05,05,52,10.40
2019,05,05,05,53,10.40
2019,05,05,05,54,10.40
2019,05,05,05,55,10.40
2019,05,05,05,56,10.40
2019,05,05,05,57,10.40
2019,05,05,05,58,10.40
2019,05,05,05,59,10.40
2019,05,05,06,00,10.40
2019,05,05,06,01,10.40
2019,05,05,06,02,10.40
2019,05,05,06,03,10.40
2019,05,05,06,04,10.40
2019,05,05,06,05,10.40
2019,05,05,06,06,10.40
2019,05,05,06,07,10.40
2019,05,05,06,08,10.40
2019,05,05,06,09,10.40
2019,05,05,06,10,10.40
2019,05,05,06,11,10.40
2019,05,05,06,12,10.40
2019,05,05,06,13,10.40
2019,05,05,06,14,10.40
2019,05,05,06,15,10.40
2019,05,05,06,16,10.40
2019,05,05,06,17,10.40
2019,05,05,06,18,10.40
2019,05,05,06,19,10.40
2019,05,05,06,20,10.40
2019,05,05,06,21,10.40
2019,05,05,06,22,10.40
2019,05,05,06,23,10.40
2019,05,05,06,24,10.40
2019,05,05,06,25,10.40
2019,05,05,06,26,10.40
2019,05,05,06,27,10.40
2019,05,05,06,28,10.40
2019,05,05,06,29,10.40
2019,05,05,06,30,10.40
2019,05,05,06,31,10.40
2019,05,05,06,32,10.40
2019,05,05,06,33,10.40
2019,05,05,06,34,10.40
2019,05,05,06,35,10.50
2019,05,05,06,36,10.50
2019,05,05,06,37,10.50
2019,05,05,06,38,10.50
2019,05,05,06,39,10.60
2019,05,05,06,40,10.60
2019,05,05,06,41,10.60
2019,05,05,06,42,10.60
2019,05,05,06,43,10.60
2019,05,05,06,44,10.60
2019,05,05,06,45,10.60
2019,05,05,06,46,10.60
2019,05,05,06,47,10.60
2019,05,05,06,48,10.60
2019,05,05,06,49,10.70
2019,05,05,06,50,10.70
2019,05,05,06,51,10.70
2019,05,05,06,52,10.70
2019,05,05,06,53,10.70
2019,05,05,06,54,10.70
2019,05,05,06,55,10.70
2019,05,05,06,56,10.70
2019,05,05,06,57,10.70
2019,05,05,06,58,10.70
2019,05,05,06,59,10.70
2019,05,05,07,00,10.70
2019,05,05,07,01,10.70
2019,05,05,07,02,10.70
2019,05,05,07,03,10.70
2019,05,05,07,04,10.70
2019,05,05,07,05,10.70
2019,05,05,07,06,10.70
2019,05,05,07,07,10.70
2019,05,05,07,08,10.70
2019,05,05,07,09,10.70
2019,05,05,07,10,10.70
2019,05,05,07,11,10.80
2019,05,05,07,12,10.80
2019,05,05,07,13,10.80
2019,05,05,07,14,10.80
2019,05,05,07,15,10.80
2019,05,05,07,16,10.80
2019,05,05,07,17,10.80
2019,05,05,07,18,10.80
2019,05,05,07,19,10.80
2019,05,05,07,20,10.90
2019,05,05,07,21,10.90
2019,05,05,07,22,10.90
2019,05,05,07,23,10.90
2019,05,05,07,24,11.00
2019,05,05,07,25,11.00
2019,05,05,07,26,11.00
2019,05,05,07,27,11.00
2019,05,05,07,28,11.10
2019,05,05,07,29,11.10
2019,05,05,07,30,11.10
2019,05,05,07,31,11.10
2019,05,05,07,32,11.10
2019,05,05,07,33,11.10
2019,05,05,07,34,11.10
2019,05,05,07,35,11.10
2019,05,05,07,36,11.10
2019,05,05,07,37,11.10
2019,05,05,07,38,11.10
2019,05,05,07,39,11.10
2019,05,05,07,40,11.10
2019,05,05,07,41,11.10
2019,05,05,07,42,11.10
2019,05,05,07,43,11.10
2019,05,05,07,44,11.10
2019,05,05,07,45,11.10
2019,05,05,07,46,11.10
2019,05,05,07,47,11.10
2019,05,05,07,48,11.00
2019,05,05,07,49,11.00
2019,05,05,07,50,11.00
2019,05,05,07,51,11.00
2019,05,05,07,52,11.00
2019,05,05,07,53,10.90
2019,05,05,07,54,10.90
2019,05,05,07,55,10.90
2019,05,05,07,56,10.90
2019,05,05,07,57,10.90
2019,05,05,07,58,10.90
2019,05,05,07,59,10.80
2019,05,05,08,00,10.80
2019,05,05,08,01,10.80
2019,05,05,08,02,10.80
2019,05,05,08,03,10.90
2019,05,05,08,04,10.80
2019,05,05,08,05,10.80
2019,05,05,08,06,10.80
2019,05,05,08,07,10.90
2019,05,05,08,08,10.90
2019,05,05,08,09,10.90
2019,05,05,08,10,10.90
2019,05,05,08,11,10.90
2019,05,05,08,12,10.90
2019,05,05,08,13,10.90
2019,05,05,08,14,10.90
2019,05,05,08,15,10.90
2019,05,05,08,16,10.90
2019,05,05,08,17,10.90
2019,05,05,08,18,11.00
2019,05,05,08,19,11.00
2019,05,05,08,20,11.00
2019,05,05,08,21,11.00
2019,05,05,08,22,11.00
2019,05,05,08,23,11.00
2019,05,05,08,24,11.10
2019,05,05,08,25,11.10
2019,05,05,08,26,11.10
2019,05,05,08,27,11.10
2019,05,05,08,28,11.10
2019,05,05,08,29,11.10
2019,05,05,08,30,11.10
2019,05,05,08,31,11.10
2019,05,05,08,32,11.10
2019,05,05,08,33,11.10
2019,05,05,08,34,11.10
2019,05,05,08,35,11.10
2019,05,05,08,36,11.10
2019,05,05,08,37,11.10
2019,05,05,08,38,11.10
2019,05,05,08,39,11.10
2019,05,05,08,40,11.10
2019,05,05,08,41,11.10
2019,05,05,08,42,11.10
2019,05,05,08,43,11.10
2019,05,05,08,44,11.10
2019,05,05,08,45,11.10
2019,05,05,08,46,11.10
2019,05,05,08,47,11.10
2019,05,05,08,48,11.10
2019,05,05,08,49,11.10
2019,05,05,08,50,11.10
2019,05,05,08,51,11.10
2019,05,05,08,52,11.10
2019,05,05,08,53,11.10
2019,05,05,08,54,11.10
2019,05,05,08,55,11.10
2019,05,05,08,56,11.10
2019,05,05,08,57,11.10
2019,05,05,08,58,11.10
2019,05,05,08,59,11.20
2019,05,05,09,00,11.10
2019,05,05,09,01,11.10
2019,05,05,09,02,11.10
2019,05,05,09,03,11.20
2019,05,05,09,04,11.20
2019,05,05,09,05,11.20
2019,05,05,09,06,11.20
2019,05,05,09,07,11.20
2019,05,05,09,08,11.20
2019,05,05,09,09,11.30
2019,05,05,09,10,11.30
2019,05,05,09,11,11.30
2019,05,05,09,12,11.30
2019,05,05,09,13,11.30
2019,05,05,09,14,11.30
2019,05,05,09,15,11.40
2019,05,05,09,16,11.40
2019,05,05,09,17,11.40
2019,05,05,09,18,11.40
2019,05,05,09,19,11.40
2019,05,05,09,20,11.40
2019,05,05,09,21,11.50
2019,05,05,09,22,11.50
2019,05,05,09,23,11.60
2019,05,05,09,24,11.60
2019,05,05,09,25,11.70
2019,05,05,09,26,11.70
2019,05,05,09,27,11.80
2019,05,05,09,28,11.80
2019,05,05,09,29,11.80
2019,05,05,09,30,11.90
2019,05,05,09,31,11.90
2019,05,05,09,32,11.90
2019,05,05,09,33,11.90
2019,05,05,09,34,11.90
2019,05,05,09,35,11.90
2019,05,05,09,36,11.90
2019,05,05,09,37,11.90
2019,05,05,09,38,12.00
2019,05,05,09,39,12.00
2019,05,05,09,40,12.00
2019,05,05,09,41,12.00
2019,05,05,09,42,12.00
2019,05,05,09,43,12.10
2019,05,05,09,44,12.10
2019,05,05,09,45,12.10
2019,05,05,09,46,12.20
2019,05,05,09,47,12.20
2019,05,05,09,48,12.20
2019,05,05,09,49,12.20
2019,05,05,09,50,12.20
2019,05,05,09,51,12.30
2019,05,05,09,52,12.30
2019,05,05,09,53,12.40
2019,05,05,09,54,12.50
2019,05,05,09,55,12.60
2019,05,05,09,56,12.70
2019,05,05,09,57,12.70
2019,05,05,09,58,12.80
2019,05,05,09,59,12.90
2019,05,05,10,00,13.00
2019,05,05,10,01,13.00
2019,05,05,10,02,13.10
2019,05,05,10,03,13.10
2019,05,05,10,04,13.10
2019,05,05,10,05,13.00
2019,05,05,10,06,13.10
2019,05,05,10,07,13.10
2019,05,05,10,08,13.10
2019,05,05,10,09,13.10
2019,05,05,10,10,13.10
2019,05,05,10,11,13.10
2019,05,05,10,12,13.10
2019,05,05,10,13,13.20
2019,05,05,10,14,13.30
2019,05,05,10,15,13.30
2019,05,05,10,16,13.20
2019,05,05,10,17,13.30
2019,05,05,10,18,13.30
2019,05,05,10,19,13.30
2019,05,05,10,20,13.30
2019,05,05,10,21,13.40
2019,05,05,10,22,13.40
2019,05,05,10,23,13.40
2019,05,05,10,24,13.40
2019,05,05,10,25,13.40
2019,05,05,10,26,13.30
2019,05,05,10,27,13.30
2019,05,05,10,28,13.30
2019,05,05,10,29,13.40
2019,05,05,10,30,13.40
2019,05,05,10,31,13.40
2019,05,05,10,32,13.40
2019,05,05,10,33,13.40
2019,05,05,10,34,13.40
2019,05,05,10,35,13.40
2019,05,05,10,36,13.40
2019,05,05,10,37,13.40
2019,05,05,10,38,13.40
2019,05,05,10,39,13.30
2019,05,05,10,40,13.30
2019,05,05,10,41,13.30
2019,05,05,10,42,13.30
2019,05,05,10,43,13.20
2019,05,05,10,44,13.20
2019,05,05,10,45,13.20
2019,05,05,10,46,13.30
2019,05,05,10,47,13.30
2019,05,05,10,48,13.30
2019,05,05,10,49,13.40
2019,05,05,10,50,13.40
2019,05,05,10,51,13.40
2019,05,05,10,52,13.50
2019,05,05,10,53,13.50
2019,05,05,10,54,13.50
2019,05,05,10,55,13.60
2019,05,05,10,56,13.60
2019,05,05,10,57,13.60
2019,05,05,10,58,13.60
2019,05,05,10,59,13.70
2019,05,05,11,00,13.80
2019,05,05,11,01,13.80
2019,05,05,11,02,13.90
2019,05,05,11,03,13.90
2019,05,05,11,04,13.90
2019,05,05,11,05,13.90
2019,05,05,11,06,14.00
2019,05,05,11,07,14.00
2019,05,05,11,08,14.10
2019,05,05,11,09,14.00
2019,05,05,11,10,14.00
2019,05,05,11,11,14.10
2019,05,05,11,12,14.10
2019,05,05,11,13,14.20
2019,05,05,11,14,14.20
2019,05,05,11,15,14.20
2019,05,05,11,16,14.20
2019,05,05,11,17,14.20
2019,05,05,11,18,14.20
2019,05,05,11,19,14.20
2019,05,05,11,20,14.20
2019,05,05,11,21,14.20
2019,05,05,11,22,14.30
2019,05,05,11,23,14.30
2019,05,05,11,24,14.30
2019,05,05,11,25,14.20
2019,05,05,11,26,14.20
2019,05,05,11,27,14.10
2019,05,05,11,28,14.10
2019,05,05,11,29,14.10
2019,05,05,11,30,14.10
2019,05,05,11,31,14.10
2019,05,05,11,32,14.10
2019,05,05,11,33,14.00
2019,05,05,11,34,14.10
2019,05,05,11,35,14.10
2019,05,05,11,36,14.10
2019,05,05,11,37,14.20
2019,05,05,11,38,14.20
2019,05,05,11,39,14.20
2019,05,05,11,40,14.10
2019,05,05,11,41,14.10
2019,05,05,11,42,14.10
2019,05,05,11,43,14.10
2019,05,05,11,44,14.10
2019,05,05,11,45,14.10
2019,05,05,11,46,14.00
2019,05,05,11,47,14.00
2019,05,05,11,48,14.10
2019,05,05,11,49,14.10
2019,05,05,11,50,14.10
2019,05,05,11,51,14.20
2019,05,05,11,52,14.30
2019,05,05,11,53,14.40
2019,05,05,11,54,14.40
2019,05,05,11,55,14.50
2019,05,05,11,56,14.50
2019,05,05,11,57,14.50
2019,05,05,11,58,14.50
2019,05,05,11,59,14.50
2019,05,05,12,00,14.50
2019,05,05,12,01,14.50
2019,05,05,12,02,14.60
2019,05,05,12,03,14.60
2019,05,05,12,04,14.60
2019,05,05,12,05,14.60
2019,05,05,12,06,14.50
2019,05,05,12,07,14.40
2019,05,05,12,08,14.30
2019,05,05,12,09,14.30
2019,05,05,12,10,14.30
2019,05,05,12,11,14.30
2019,05,05,12,12,14.40
2019,05,05,12,13,14.40
2019,05,05,12,14,14.50
2019,05,05,12,15,14.60
2019,05,05,12,16,14.60
2019,05,05,12,17,14.60
2019,05,05,12,18,14.70
2019,05,05,12,19,14.70
2019,05,05,12,20,14.70
2019,05,05,12,21,14.80
2019,05,05,12,22,14.80
2019,05,05,12,23,14.70
2019,05,05,12,24,14.70
2019,05,05,12,25,14.70
2019,05,05,12,26,14.70
2019,05,05,12,27,14.70
2019,05,05,12,28,14.80
2019,05,05,12,29,14.90
2019,05,05,12,30,15.00
2019,05,05,12,31,15.10
2019,05,05,12,32,15.20
2019,05,05,12,33,15.20
2019,05,05,12,34,15.30
2019,05,05,12,35,15.30
2019,05,05,12,36,15.30
2019,05,05,12,37,15.30
2019,05,05,12,38,15.40
2019,05,05,12,39,15.40
2019,05,05,12,40,15.40
2019,05,05,12,41,15.40
2019,05,05,12,42,15.40
2019,05,05,12,43,15.40
2019,05,05,12,44,15.40
2019,05,05,12,45,15.40
2019,05,05,12,46,15.50
2019,05,05,12,47,15.50
2019,05,05,12,48,15.60
2019,05,05,12,49,15.80
2019,05,05,12,50,15.80
2019,05,05,12,51,15.90
2019,05,05,12,52,15.80
2019,05,05,12,53,15.80
2019,05,05,12,54,15.80
2019,05,05,12,55,15.80
2019,05,05,12,56,15.70
2019,05,05,12,57,15.70
2019,05,05,12,58,15.70
2019,05,05,12,59,15.70
2019,05,05,13,00,15.70
2019,05,05,13,01,15.70
2019,05,05,13,02,15.60
2019,05,05,13,03,15.50
2019,05,05,13,04,15.50
2019,05,05,13,05,15.50
2019,05,05,13,06,15.60
2019,05,05,13,07,15.60
2019,05,05,13,08,15.60
2019,05,05,13,09,15.60
2019,05,05,13,10,15.60
2019,05,05,13,11,15.60
2019,05,05,13,12,15.60
2019,05,05,13,13,15.60
2019,05,05,13,14,15.70
2019,05,05,13,15,15.70
2019,05,05,13,16,15.70
2019,05,05,13,17,15.70
2019,05,05,13,18,15.70
2019,05,05,13,19,15.70
2019,05,05,13,20,15.70
2019,05,05,13,21,15.70
2019,05,05,13,22,15.80
2019,05,05,13,23,15.80
2019,05,05,13,24,15.80
2019,05,05,13,25,15.70
2019,05,05,13,26,15.60
2019,05,05,13,27,15.50
2019,05,05,13,28,15.60
2019,05,05,13,29,15.60
2019,05,05,13,30,15.60
2019,05,05,13,31,15.60
2019,05,05,13,32,15.70
2019,05,05,13,33,15.70
2019,05,05,13,34,15.70
2019,05,05,13,35,15.70
2019,05,05,13,36,15.70
2019,05,05,13,37,15.70
2019,05,05,13,38,15.70
2019,05,05,13,39,15.70
2019,05,05,13,40,15.80
2019,05,05,13,41,15.80
2019,05,05,13,42,15.80
2019,05,05,13,43,15.80
2019,05,05,13,44,15.80
2019,05,05,13,45,15.90
2019,05,05,13,46,16.10
2019,05,05,13,47,16.10
2019,05,05,13,48,16.10
2019,05,05,13,49,16.10
2019,05,05,13,50,16.10
2019,05,05,13,51,16.10
2019,05,05,13,52,16.10
2019,05,05,13,53,16.20
2019,05,05,13,54,16.20
2019,05,05,13,55,16.20
2019,05,05,13,56,16.30
2019,05,05,13,57,16.40
2019,05,05,13,58,16.30
2019,05,05,13,59,16.30
2019,05,05,14,00,16.30
2019,05,05,14,01,16.30
2019,05,05,14,02,16.30
2019,05,05,14,03,16.30
2019,05,05,14,04,16.30
2019,05,05,14,05,16.30
2019,05,05,14,06,16.20
2019,05,05,14,07,16.20
2019,05,05,14,08,16.30
2019,05,05,14,09,16.20
2019,05,05,14,10,16.20
2019,05,05,14,11,16.30
2019,05,05,14,12,16.30
2019,05,05,14,13,16.40
2019,05,05,14,14,16.40
2019,05,05,14,15,16.40
2019,05,05,14,16,16.50
2019,05,05,14,17,16.60
2019,05,05,14,18,16.60
2019,05,05,14,19,16.70
2019,05,05,14,20,16.70
2019,05,05,14,21,16.70
2019,05,05,14,22,16.60
2019,05,05,14,23,16.70
2019,05,05,14,24,16.70
2019,05,05,14,25,16.80
2019,05,05,14,26,16.80
2019,05,05,14,27,16.90
2019,05,05,14,28,17.10
2019,05,05,14,29,17.20
2019,05,05,14,30,17.20
2019,05,05,14,31,17.20
2019,05,05,14,32,17.20
2019,05,05,14,33,17.20
2019,05,05,14,34,17.20
2019,05,05,14,35,17.10
2019,05,05,14,36,17.10
2019,05,05,14,37,17.10
2019,05,05,14,38,17.10
2019,05,05,14,39,17.00
2019,05,05,14,40,16.90
2019,05,05,14,41,16.90
2019,05,05,14,42,16.90
2019,05,05,14,43,16.90
2019,05,05,14,44,16.80
2019,05,05,14,45,16.90
2019,05,05,14,46,16.90
2019,05,05,14,47,17.00
2019,05,05,14,48,16.90
2019,05,05,14,49,16.90
2019,05,05,14,50,16.80
2019,05,05,14,51,16.90
2019,05,05,14,52,16.90
2019,05,05,14,53,17.00
2019,05,05,14,54,17.20
2019,05,05,14,55,17.30
2019,05,05,14,56,17.30
2019,05,05,14,57,17.30
2019,05,05,14,58,17.40
2019,05,05,14,59,17.50
2019,05,05,15,00,17.60
2019,05,05,15,01,17.60
2019,05,05,15,02,17.60
2019,05,05,15,03,17.70
2019,05,05,15,04,17.70
2019,05,05,15,05,17.70
2019,05,05,15,06,17.80
2019,05,05,15,07,17.80
2019,05,05,15,08,17.90
2019,05,05,15,09,18.00
2019,05,05,15,10,18.10
2019,05,05,15,11,18.10
2019,05,05,15,12,18.10
2019,05,05,15,13,18.10
2019,05,05,15,14,18.10
2019,05,05,15,15,18.10
2019,05,05,15,16,18.20
2019,05,05,15,17,18.30
2019,05,05,15,18,18.30
2019,05,05,15,19,18.30
2019,05,05,15,20,18.30
2019,05,05,15,21,18.30
2019,05,05,15,22,18.30
2019,05,05,15,23,18.40
2019,05,05,15,24,18.30
2019,05,05,15,25,18.30
2019,05,05,15,26,18.30
2019,05,05,15,27,18.40
2019,05,05,15,28,18.40
2019,05,05,15,29,18.40
2019,05,05,15,30,18.50
2019,05,05,15,31,18.50
2019,05,05,15,32,18.60
2019,05,05,15,33,18.60
2019,05,05,15,34,18.60
2019,05,05,15,35,18.60
2019,05,05,15,36,18.60
2019,05,05,15,37,18.70
2019,05,05,15,38,18.70
2019,05,05,15,39,18.70
2019,05,05,15,40,18.80
2019,05,05,15,41,18.80
2019,05,05,15,42,18.90
2019,05,05,15,43,18.80
2019,05,05,15,44,18.90
2019,05,05,15,45,18.90
2019,05,05,15,46,18.90
2019,05,05,15,47,19.00
2019,05,05,15,48,19.00
2019,05,05,15,49,19.10
2019,05,05,15,50,19.20
2019,05,05,15,51,19.20
2019,05,05,15,52,19.20
2019,05,05,15,53,19.20
2019,05,05,15,54,19.20
2019,05,05,15,55,19.20
2019,05,05,15,56,19.30
2019,05,05,15,57,19.30
2019,05,05,15,58,19.30
2019,05,05,15,59,19.40
2019,05,05,16,00,19.40
2019,05,05,16,01,19.40
2019,05,05,16,02,19.40
2019,05,05,16,03,19.50
2019,05,05,16,04,19.50
2019,05,05,16,05,19.50
2019,05,05,16,06,19.50
2019,05,05,16,07,19.50
2019,05,05,16,08,19.50
2019,05,05,16,09,19.50
2019,05,05,16,10,19.60
2019,05,05,16,11,19.60
2019,05,05,16,12,19.60
2019,05,05,16,13,19.70
2019,05,05,16,14,19.70
2019,05,05,16,15,19.70
2019,05,05,16,16,19.60
2019,05,05,16,17,19.60
2019,05,05,16,18,19.50
2019,05,05,16,19,19.40
2019,05,05,16,20,19.40
2019,05,05,16,21,19.30
2019,05,05,16,22,19.30
2019,05,05,16,23,19.30
2019,05,05,16,24,19.30
2019,05,05,16,25,19.30
2019,05,05,16,26,19.30
2019,05,05,16,27,19.40
2019,05,05,16,28,19.30
2019,05,05,16,29,19.30
2019,05,05,16,30,19.40
2019,05,05,16,31,19.40
2019,05,05,16,32,19.40
2019,05,05,16,33,19.40
2019,05,05,16,34,19.40
2019,05,05,16,35,19.30
2019,05,05,16,36,19.30
2019,05,05,16,37,19.30
2019,05,05,16,38,19.30
2019,05,05,16,39,19.30
2019,05,05,16,40,19.30
2019,05,05,16,41,19.30
2019,05,05,16,42,19.30
2019,05,05,16,43,19.30
2019,05,05,16,44,19.40
2019,05,05,16,45,19.40
2019,05,05,16,46,19.50
2019,05,05,16,47,19.50
2019,05,05,16,48,19.60
2019,05,05,16,49,19.60
2019,05,05,16,50,19.60
2019,05,05,16,51,19.60
2019,05,05,16,52,19.60
2019,05,05,16,53,19.60
2019,05,05,16,54,19.60
2019,05,05,16,55,19.70
2019,05,05,16,56,19.60
2019,05,05,16,57,19.60
2019,05,05,16,58,19.60
2019,05,05,16,59,19.60
2019,05,05,17,00,19.60
2019,05,05,17,01,19.70
2019,05,05,17,02,19.70
2019,05,05,17,03,19.70
2019,05,05,17,04,19.70
2019,05,05,17,05,19.70
2019,05,05,17,06,19.70
2019,05,05,17,07,19.70
2019,05,05,17,08,19.60
2019,05,05,17,09,19.60
2019,05,05,17,10,19.60
2019,05,05,17,11,19.60
2019,05,05,17,12,19.60
2019,05,05,17,13,19.60
2019,05,05,17,14,19.60
2019,05,05,17,15,19.70
2019,05,05,17,16,19.70
2019,05,05,17,17,19.80
2019,05,05,17,18,19.80
2019,05,05,17,19,19.90
2019,05,05,17,20,19.90
2019,05,05,17,21,20.00
2019,05,05,17,22,20.00
2019,05,05,17,23,20.10